Regional Weather Roundup
Issued by NWS State College, PA

Home | Current Version | Previous Version | Text Only | Print | Product List | Glossary On
Versions: 1 2 3 4 5 6 7 8 9 10 11 12 13 14 15 16 17 18 19 20 21 22 23 24 25 26 27 28 29 30 31 32 33 34 35 36 37 38 39 40 41 42 43 44 45 46 47 48 49 50
000
ASUS41 KCTP 252310
RWRCTP

REGIONAL WEATHER ROUNDUP
NATIONAL WEATHER SERVICE STATE COLLEGE PA
600 PM EST SUN JAN 25 2015

Note: "fair" indicates few or no clouds below 12,000 feet with no
significant weather and/or obstructions to visibility.

* = STATION THAT DOES NOT REPORT PRECIPITATION /E.G. RAIN...SNOW...ETC/
    THUNDER OR FOG.

PAZ002>004-007>009-013>016-020>023-029>032-260000-
WESTERN PENNSYLVANIA

CITY           SKY/WX    TMP DP  RH WIND       PRES   REMARKS
ERIE           MOCLDY    19  10  68 NE16G24   29.92S WCI   4
MEADVILLE      CLOUDY    23  16  74 NE10      29.82S WCI  12
FRANKLIN*      CLOUDY    25  16  68 CALM      29.82S
NEW CASTLE     LGT SNOW  27  26  96 N9        29.83R FOG
BEAVER COUNTY  NOT AVBL
BUTLER*        CLOUDY    28  27  93 NE8       29.81R
PITTSBURGH INT LGT SNOW  31  30  96 NE13      29.78R FOG
PITTSBURGH     SNOW      32  29  88 NE3       29.77R VSB 1/2
INDIANA*       CLOUDY    32  30  93 NE3       29.82S FOG
LATROBE        LGT RAIN  32  32 100 CALM      29.80R FOG
WASHINGTON CO* CLOUDY    34  30  86 CALM      29.78R
$$

PAZ004>006-010>012-017>019-024>028-033>037-041-042-045-046-049>053-260000-
CENTRAL PENNSYLVANIA

CITY           SKY/WX    TMP DP  RH WIND       PRES   REMARKS
BRADFORD       PTCLDY    22   8  55 N6        29.79R WCI  14
DUBOIS         CLOUDY    28  21  75 NE6       29.77S
CLEARFIELD     MOCLDY    30  22  72 CALM      29.80R
JOHNSTOWN      LGT SNOW  31  30  96 CALM      29.73S VSB 3/4
ALTOONA        LGT SNOW  33  32  96 NE3       29.79R FOG
STATE COLLEGE  CLOUDY    32  27  80 CALM      29.81R
WILLIAMSPORT   CLOUDY    34  11  38 NE5       29.86R
SELINSGROVE    CLOUDY    36  25  64 NE5       29.86R
FT INDIANTOWN  CLOUDY    37  28  70 CALM      29.85R
CAPITAL CITY   CLOUDY    38  33  82 CALM      29.85R
HARRISBURG     LGT RAIN  35  32  88 CALM      29.84R
YORK           CLOUDY    35  31  85 CALM      29.84R
$$

PAZ038>040-043-044-047-048-054-055-060>062-067>071-260000-
EASTERN PENNSYLVANIA

CITY           SKY/WX    TMP DP  RH WIND       PRES   REMARKS
SCRANTON       CLOUDY    28   8  43 N8        29.85R
MOUNT POCONO   CLOUDY    25   7  46 VRB3      29.78R
ALLENTOWN      CLOUDY    37  22  54 N5        29.86R
QUAKERTOWN*    NOT AVBL
READING        CLOUDY    38  28  67 CALM      29.86R
LANCASTER      LGT RAIN  37  32  82 CALM      29.85R
COATESVILLE    CLOUDY    39  34  81 CALM      29.85R
POTTSTOWN      CLOUDY    36  30  79 CALM      29.87R
BLUE BELL      CLOUDY    36  32  87 CALM      29.85R
DOYLESTOWN     CLOUDY    36  29  75 CALM      29.85R
WILLOW GROVE   NOT AVBL
NORTH PHILA    CLOUDY    41  29  62 N3        29.88R
PHILADELPHIA   MOCLDY    42  32  67 N6        29.87R
$$


USA.gov is the U.S. government's official web portal to all federal, state and local government web resources and services.